METEOR M2-2

导读

METEOR M2-2(流星-M2-2)是独联体(CIS)旗下俄罗斯研制的新一代极轨气象卫星,于2019年7月5日由联盟-2.1b运载火箭从东方发射场成功发射。卫星运行于太阳同步轨道,搭载多种气象探测载荷,旨在提升气象观测能力。但发射仅11天后,因微流星体撞击受损,图像传输中止,最终无法正常执行气象观测任务。

Basic Information
目录编号:
44387
目录名称:
METEOR M2-2
国际标识:
2019-038A
轨道中心:
EARTH
卫星名称:
METEOR M2-2
卫星全名:
--
卫星状态:
在轨 (已飞行2629 天)
发射日期:
2019-07-05 UTC
国别 :
俄罗斯(独联体) (CIS)
星等 :
--
This satellite is enrolled in the Space Conjunction Data Service (SCDS) and the current flight risk assessment level is: No High Risk
Orbit Information
数据来源 国际轨道数据 AOE轨道数据
星历时间 2026-09-15T21:56:02+0800
9小时前
查看轨道信息
2026-09-15T02:00:00+0800
1天前
查看轨道信息
半长轴 7188.693km 7188.68km
偏心率 0.000224 0.0001916
轨道倾角 98.924° 98.926°
近地点辐角 99.718° 114.495°
升交点赤经 247.241° 246.399°
平近点角 260.425° 309.035°
近地点 808.945km 809.165km
远地点 812.167km 811.921km
周期 101.096分钟 101.096分钟
每日圈数 14.243866 14.243905
Detailed Information
使用方式:
暂无
2D Orbit Map
3D Orbit Map
Orbit Altitude Analysis Chart
Orbit Inclination Analysis Chart
Orbit Comprehensive Analysis Chart
View Comprehensive Chart
Miss Distance Evolution Trend with All Objects Subscribe to Flight Safety Assessment
Collision Probability Evolution Trend with All Objects Subscribe to Flight Safety Assessment